Content
SEND FEEDBACK

Daily
Averages
Monthly
Summary
United States of America

DAWSON, NEW MEXICO


Home > North America > United States > New Mexico
Elevation: 6400 feet     Latitude: 36 40N     Longitude: 104 47W

WEATHER
 
SELECT A DAY
Number of Records: 154,263;   Date Range: 8/27/98 - 9/29/14
 
SHARE

PRINT THIS DATA

[ ← Previous Day ]
WEATHER ALMANAC - JANUARY 31, 2013
[ Next Day → ]
[ °C ]   °F
Weather ElementAverageHighLow
Temperature32.4 °F51.1 °F (2:53 pm)16 °F (3:53 am)
Dewpoint9.1 °F14 °F (8:53 am)3.9 °F (3:53 pm)
Humidity44 %74 % (3:53 am)15 % (2:53 pm)
Barometer30.11 in30.21 in (7:53 pm)30.01 in (2:53 am)
Wind Speed7.2 mph16.1 mph (6:53 pm)
Weather ElementAverage
Visibility10 mi
Wind DirectionSSE (145.7 °)

Weather ElementTotal
Precipitation---
Heating Degree Days31.5 (Base 65)
Averaged from 23 records on January 31, 2013
WEATHER CONDITIONS BREAKOUT
WIND DIRECTION BREAKOUT
WEATHER BY HOUR - JANUARY 31, 2013
[ °C ]   °F
Local TimeTemperatureDewpointHumidityBarometerVisibilityWind DirectionWind SpeedGust SpeedPrecipitationEventsConditions
1:53 AM19.0 °F10.0 °F68 %30.02 in10.0 miNNE (20°)5.8 mphClear
2:53 AM18.0 °F9.0 °F68 %30.01 in10.0 miNE (50°)8.1 mphClear
3:53 AM16.0 °F9.0 °F74 %30.04 in10.0 miNNE (20°)5.8 mphClear
4:53 AM16.0 °F8.1 °F71 %30.06 in10.0 miNE (40°)6.9 mphClear
5:53 AM17.1 °F8.1 °F68 %30.10 in10.0 miENE (70°)10.4 mphClear
6:53 AM17.1 °F8.1 °F68 %30.14 in10.0 miNNW (340°)3.5 mphClear
7:53 AM26.1 °F12.9 °F58 %30.12 in10.0 miNNW (330°)6.9 mphClear
8:53 AM28.9 °F14.0 °F54 %30.13 in10.0 miNorth (360°)4.6 mphClear
9:53 AM37.9 °F10.9 °F33 %30.11 in10.0 miCalmClear
10:53 AM42.1 °F9.0 °F26 %30.14 in10.0 miVariable3.5 mphClear
11:53 AM46.0 °F8.1 °F21 %30.09 in10.0 miEast (100°)5.8 mphClear
12:53 PM48.9 °F7.0 °F18 %30.07 in10.0 miSouth (190°)4.6 mphClear
1:53 PM50.0 °F6.1 °F17 %30.07 in10.0 miSouth (190°)8.1 mphClear
2:53 PM51.1 °F5.0 °F15 %30.07 in10.0 miSSE (150°)11.5 mphClear
3:53 PM51.1 °F3.9 °F15 %30.09 in10.0 miSouth (170°)10.4 mphClear
4:53 PM46.9 °F6.1 °F19 %30.13 in10.0 miSouth (170°)13.8 mphClear
5:53 PM39.9 °F8.1 °F27 %30.17 in10.0 miSouth (170°)11.5 mphClear
6:53 PM37.0 °F8.1 °F30 %30.20 in10.0 miSouth (180°)16.1 mphClear
7:53 PM30.0 °F10.9 °F45 %30.21 in10.0 miSSW (210°)6.9 mphClear
8:53 PM30.0 °F10.0 °F43 %30.19 in10.0 miVariable5.8 mphClear
9:53 PM28.0 °F12.0 °F51 %30.16 in10.0 miWNW (290°)8.1 mphClear
10:53 PM27.0 °F12.9 °F56 %30.14 in10.0 miWNW (300°)6.9 mphClear
11:53 PM21.9 °F12.0 °F66 %30.15 in10.0 miCalmClear
Hourly data recorded from KRTN, located miles away from Dawson, New Mexico







STORIES FROM OUR PARTNERS